Home   Weather   Arica   Past weeks
Flag for Chile

Past Weather in Arica, Chile — Yesterday and Last 2 Weeks

Now
66 °F

Partly sunny.


Feels Like: 66 °F
Forecast: N/A
Wind: 15 mph from Southwest

Location: Arica Airport

Current Time: Oct 17, 2019 at 6:03:52 pm

Latest Report: Oct 17, 2019 at 5:00 pm


Visibility: N/A

Pressure: 29.98 "Hg

Humidity: 60%

Dew Point: 52 °F

Location of AricaLocation

Past Weather in Arica — Graph

°F

Arica Temperature Yesterday

Maximum temperature yesterday: 68 °F (at 1:00 pm)
Minimum temperature yesterday: 59 °F (at 2:00 am)
Average temperature yesterday: 64 °F

High & Low Weather Summary for the Past Weeks

 TemperatureHumidityPressure
High72 °F (Oct 14, 2:00 pm)88% (Oct 4, 9:00 pm)30.12 "Hg (Oct 4, 9:00 pm)
Low55 °F (Oct 12, 4:00 am)53% (Oct 14, 12:00 pm)29.83 "Hg (Oct 9, 5:00 pm)
Average62 °F70%29.99 "Hg
* Reported Oct 2 5:00 pm — Oct 17 5:00 pm, Arica. Weather by CustomWeather, © 2019

Note: Actual official high and low records may vary slightly from our data, if they occured in-between our weather recording intervals... More about our weather records

Advertising

Arica Weather History for the Previous 24 Hours

Scroll right to see more
 ConditionsComfort  
Time TempWeatherWind HumidityBarometerVisibility
5:00 pm
Thu, Oct 17
66 °FPartly sunny.15 mph60%29.98 "HgN/A
4:00 pm68 °FSunny.15 mph56%29.98 "Hg10 mi
3:00 pm66 °FBroken clouds.16 mph64%29.98 "HgN/A
2:00 pm68 °FScattered clouds.15 mph60%29.98 "HgN/A
1:00 pm66 °FOvercast.12 mph60%30.01 "HgN/A
11:00 am66 °FOvercast.7 mph60%30.04 "HgN/A
10:00 am64 °FOvercast.6 mph64%30.04 "HgN/A
9:00 am64 °FOvercast.6 mph64%30.04 "HgN/A
8:00 am63 °FOvercast.6 mph73%30.04 "HgN/A
7:00 am63 °FOvercast.6 mph77%30.01 "HgN/A
6:00 am63 °FOvercast.2 mph77%30.01 "HgN/A
5:00 am63 °FOvercast.2 mph77%30.04 "HgN/A
4:00 am63 °FOvercast.5 mph77%30.04 "HgN/A
3:00 am63 °FOvercast.5 mph77%30.07 "HgN/A
2:00 am63 °FOvercast.6 mph77%30.07 "HgN/A
1:00 am63 °FOvercast.5 mph77%30.07 "HgN/A
12:00 am64 °FOvercast.3 mph73%30.09 "HgN/A
11:00 pm
Wed, Oct 16
64 °FPassing clouds.5 mph73%30.07 "HgN/A
10:00 pm64 °FPassing clouds.5 mph73%30.07 "HgN/A
9:00 pm64 °FPassing clouds.2 mph73%30.04 "HgN/A
8:00 pm64 °FClear.6 mph73%30.04 "Hg10 mi
7:00 pm64 °FSunny.9 mph68%30.01 "Hg10 mi
6:00 pm66 °FPassing clouds.10 mph64%30.01 "HgN/A
Weather by CustomWeather, © 2019

See weather overview